Weather reports worldwide

Advertisment
London/Heathrow Intl, United Kingdom (3772): temperature & dewpoint: 14.10.2017 22:00:00 - 20.10.2017 22:00:00 (BST)London/Heathrow Intl, United Kingdom (3772): wind speed & gusts: 14.10.2017 22:00:00 - 20.10.2017 22:00:00 (BST)London/Heathrow Intl, United Kingdom (3772): wind direction: 14.10.2017 22:00:00 - 20.10.2017 22:00:00 (BST)London/Heathrow Intl, United Kingdom (3772): reduced air pressure: 14.10.2017 22:00:00 - 20.10.2017 22:00:00 (BST)London/Heathrow Intl, United Kingdom (3772): visibility: 14.10.2017 22:00:00 - 20.10.2017 22:00:00 (BST)London/Heathrow Intl, United Kingdom (3772): sunshine duration: 14.10.2017 22:00:00 - 20.10.2017 22:00:00 (BST)London/Heathrow Intl, United Kingdom (3772): precipitation: 14.10.2017 22:00:00 - 20.10.2017 22:00:00 (BST)
Date & Time tt [°C] td [°C] ff [km/h] ff [kn] fx [km/h] fx [kn] dd ppp [hPa] vv [km] sd [min] rr [mm]
20.10.2017 22:00:00 13,4 9,9 16 9 - - SSE 1006,6 10 0 -
20.10.2017 21:00:00 13,1 9,1 13 7 - - SE 1007,6 10 0 0,0
20.10.2017 20:00:00 13,1 8,7 15 8 - - S 1008,6 10 0 0,0
20.10.2017 19:00:00 12,9 7,5 11 6 - - S 1009,0 10 0 0,0
20.10.2017 18:00:00 13,4 6,8 13 7 - - SW 1008,9 10 0 0,0
20.10.2017 17:00:00 13,6 6,1 24 13 - - WSW 1009,1 10 12 0,0
20.10.2017 16:00:00 14,9 6,1 26 14 - - WSW 1008,8 10 48 0,0
20.10.2017 15:00:00 14,4 7,0 29 16 48 26 SW 1008,3 10 48 0,0
20.10.2017 14:00:00 14,6 8,4 31 17 54 29 WSW 1007,6 10 36 0,0
20.10.2017 13:00:00 14,1 8,5 31 17 55 30 WSW 1006,9 10 0 0,0
20.10.2017 12:00:00 13,7 9,5 34 18 52 28 W 1006,3 10 0 0,0
20.10.2017 11:00:00 13,0 9,7 34 18 48 26 W 1005,5 10 0 0,0
20.10.2017 10:00:00 12,6 10,1 34 18 50 27 WSW 1004,2 10 0 0,0
20.10.2017 09:00:00 12,7 10,8 31 17 46 25 WSW 1002,7 10 0 0,0
20.10.2017 08:00:00 12,5 11,2 29 16 50 27 WSW 1000,8 10 0 0,0
20.10.2017 07:00:00 12,5 11,2 34 18 52 28 WSW 998,9 10 0 0,2
20.10.2017 06:00:00 12,5 11,3 29 16 46 25 SW 997,7 10 0 0,0
20.10.2017 05:00:00 12,4 11,6 22 12 - - SSW 997,1 10 0 0,2
20.10.2017 04:00:00 12,1 11,3 24 13 - - SSW 997,3 4,4 0 0,4
20.10.2017 03:00:00 12,3 10,6 28 15 - - S 997,7 9 0 0,0
20.10.2017 02:00:00 12,6 10,5 22 12 - - S 998,2 10 0 0,0
20.10.2017 01:00:00 12,7 10,9 21 11 - - SSW 998,6 10 - 0,0
20.10.2017 00:00:00 13,9 12,4 21 11 - - S 998,4 10 0 0,0
19.10.2017 23:00:00 13,5 12,3 29 16 50 27 SSE 998,5 7 0 0,4
19.10.2017 22:00:00 14,1 12,6 24 13 55 30 S 999,6 10 0 0,8
19.10.2017 21:00:00 15,6 13,1 22 12 - - S 999,9 10 0 0,2
19.10.2017 20:00:00 16,0 13,4 16 9 - - SSE 1000,8 10 0 0,0
19.10.2017 19:00:00 15,6 13,3 15 8 - - SSE 1001,3 10 0 0,0
19.10.2017 18:00:00 15,8 13,4 18 10 - - S 1001,3 10 0 0,0
19.10.2017 17:00:00 16,0 13,5 18 10 - - S 1001,3 10 0 0,0
19.10.2017 16:00:00 16,3 14,6 18 10 - - S 1001,4 8 0 0,0
19.10.2017 15:00:00 16,8 14,6 22 12 - - S 1001,5 10 0 0,0
19.10.2017 14:00:00 16,8 14,3 18 10 - - S 1002,0 10 0 0,0
19.10.2017 13:00:00 16,6 14,9 13 7 - - SSE 1002,7 9 0 0,0
19.10.2017 12:00:00 16,5 15,7 13 7 - - ESE 1003,6 3,7 0 0,2
19.10.2017 11:00:00 16,0 15,4 8 4 - - E 1004,5 3,7 0 0,0
19.10.2017 10:00:00 15,3 14,9 9 5 - - E 1005,4 3,1 0 0,0
19.10.2017 09:00:00 15,1 14,7 11 6 - - E 1006,0 2,3 0 0,0
19.10.2017 08:00:00 15,0 14,7 4 2 - - - 1006,3 2,2 0 0,0
19.10.2017 07:00:00 14,8 14,6 5 3 - - E 1006,7 1,8 0 0,0
19.10.2017 06:00:00 14,7 14,6 8 4 - - E 1006,8 1,9 0 0,0
19.10.2017 05:00:00 14,9 14,7 8 4 - - ESE 1007,4 2,3 0 0,0
19.10.2017 04:00:00 15,0 14,9 5 3 - - SE 1008,0 2,7 0 0,0
19.10.2017 03:00:00 15,1 15,0 5 3 - - SSE 1008,8 1,7 0 0,0
19.10.2017 02:00:00 15,1 15,0 4 2 - - SSE 1009,3 1,1 0 0,2
19.10.2017 01:00:00 15,1 15,0 8 4 - - SSE 1009,4 1,6 - 0,4
19.10.2017 00:00:00 15,2 14,8 5 3 - - - 1009,8 1,7 0 0,0
18.10.2017 23:00:00 15,3 14,7 5 3 - - S 1009,5 2,2 0 0,0
18.10.2017 22:00:00 15,4 14,9 8 4 - - SSE 1010,1 2,1 0 0,0
18.10.2017 21:00:00 15,1 14,9 8 4 - - E 1010,1 2,2 0 0,0
18.10.2017 20:00:00 14,9 14,4 4 2 - - E 1010,6 2,7 0 0,4
18.10.2017 19:00:00 15,1 14,0 4 2 - - ENE 1010,2 3,7 0 0,0
18.10.2017 18:00:00 15,1 13,8 5 3 - - NE 1010,0 4,3 0 0,0
18.10.2017 17:00:00 14,8 13,5 8 4 - - ENE 1010,1 4,3 0 0,0
18.10.2017 16:00:00 14,4 13,1 9 5 - - ENE 1010,3 4,2 0 0,0
18.10.2017 15:00:00 13,9 12,6 9 5 - - ENE 1010,7 5 0 0,0
18.10.2017 14:00:00 13,6 12,1 9 5 - - NE 1011,1 7 0 0,0
18.10.2017 13:00:00 12,9 11,3 9 5 - - ENE 1011,5 10 0 0,0
18.10.2017 12:00:00 12,4 10,8 9 5 - - NE 1011,9 10 0 0,0
18.10.2017 11:00:00 12,0 10,4 9 5 - - ENE 1012,2 10 0 0,2
18.10.2017 10:00:00 12,1 10,1 11 6 - - NE 1012,2 10 0 0,0
18.10.2017 09:00:00 11,9 9,7 9 5 - - ENE 1012,3 10 0 0,0
18.10.2017 08:00:00 11,9 9,3 11 6 - - ENE 1012,4 10 0 0,0
18.10.2017 07:00:00 11,8 9,2 9 5 - - NE 1012,4 10 0 0,0
18.10.2017 06:00:00 11,7 9,5 11 6 - - ENE 1012,9 10 0 0,0
18.10.2017 05:00:00 11,7 9,5 9 5 - - NE 1013,3 10 0 0,0
18.10.2017 04:00:00 11,8 9,1 8 4 - - NE 1013,9 10 0 0,0
18.10.2017 03:00:00 11,5 9,6 5 3 - - NE 1014,4 10 0 0,0
18.10.2017 02:00:00 11,3 9,3 8 4 - - N 1014,9 10 0 0,2
18.10.2017 01:00:00 11,7 8,9 8 4 - - N 1015,9 10 - 0,0
18.10.2017 00:00:00 11,7 8,6 5 3 - - - 1016,1 10 0 0,0
17.10.2017 23:00:00 11,8 8,4 5 3 - - NE 1016,5 10 0 0,0
17.10.2017 22:00:00 12,2 7,9 4 2 - - - 1017,0 10 0 0,0
17.10.2017 21:00:00 12,5 8,2 8 4 - - SSE 1017,6 10 0 0,0
17.10.2017 20:00:00 12,4 8,3 2 1 - - - 1017,5 10 0 0,0
17.10.2017 19:00:00 12,4 7,5 8 4 - - WSW 1017,7 10 0 0,0
17.10.2017 18:00:00 12,7 7,4 11 6 - - W 1017,7 10 0 0,0
17.10.2017 17:00:00 13,1 8,2 13 7 - - W 1017,9 10 0 0,0
17.10.2017 16:00:00 13,7 7,4 16 9 - - WSW 1018,5 10 0 0,0
17.10.2017 15:00:00 13,9 7,3 15 8 - - SW 1019,1 10 0 0,0
17.10.2017 14:00:00 13,9 7,5 13 7 - - SW 1019,7 10 0 0,0
17.10.2017 13:00:00 14,0 7,5 15 8 - - SW 1020,5 10 0 0,0
17.10.2017 12:00:00 14,3 7,2 16 9 - - WSW 1020,5 10 12 0,0
17.10.2017 11:00:00 14,5 8,1 15 8 - - SW 1020,6 10 54 0,0
17.10.2017 10:00:00 12,9 7,9 16 9 - - SW 1020,4 10 24 0,0
17.10.2017 09:00:00 11,6 7,4 13 7 - - SSW 1020,4 10 6 0,0
17.10.2017 08:00:00 11,3 7,0 24 13 - - SW 1020,0 10 0 0,0
17.10.2017 07:00:00 10,8 7,2 18 10 - - SW 1019,4 10 0 0,0
17.10.2017 06:00:00 11,1 7,5 16 9 - - SW 1019,2 10 0 0,0
17.10.2017 05:00:00 11,8 7,7 18 10 - - SSW 1019,1 10 0 0,0
17.10.2017 04:00:00 12,0 7,3 24 13 - - SW 1019,1 10 0 0,0
17.10.2017 03:00:00 12,5 8,4 21 11 - - SW 1019,0 10 0 0,0
17.10.2017 02:00:00 12,9 8,3 24 13 - - SW 1018,9 10 0 0,0
17.10.2017 01:00:00 13,1 7,8 22 12 - - SW 1018,8 10 - 0,0
17.10.2017 00:00:00 13,5 7,7 29 16 54 29 SW 1018,6 10 0 0,0
16.10.2017 23:00:00 14,3 8,2 28 15 46 25 SW 1018,0 10 0 0,0
16.10.2017 22:00:00 14,6 8,5 28 15 46 25 SW 1017,8 10 0 0,0
16.10.2017 21:00:00 14,8 8,9 26 14 - - SW 1017,3 10 0 0,0
16.10.2017 20:00:00 15,1 8,9 24 13 - - SW 1017,0 10 0 0,0
16.10.2017 19:00:00 15,8 9,4 28 15 - - SW 1016,6 10 0 -
16.10.2017 18:00:00 16,6 10,2 26 14 50 27 SSW 1015,9 10 0 0,0
16.10.2017 17:00:00 17,1 10,1 29 16 52 28 SW 1015,5 10 0 0,0
16.10.2017 16:00:00 17,9 11,3 34 18 65 35 SW 1015,0 10 0 0,0
16.10.2017 15:00:00 19,4 12,2 29 16 52 28 SW 1014,8 10 0 0,0
16.10.2017 14:00:00 20,6 14,9 24 13 46 25 SSW 1014,4 10 0 0,0
16.10.2017 13:00:00 21,4 15,0 24 13 46 25 SSW 1014,6 10 18 0,0
16.10.2017 12:00:00 22,1 14,6 29 16 - - S 1014,4 10 60 0,0
16.10.2017 11:00:00 21,9 15,0 24 13 - - S 1014,6 10 36 0,0
16.10.2017 10:00:00 20,1 16,0 16 9 - - SSE 1014,4 10 36 0,0
16.10.2017 09:00:00 18,0 15,9 15 8 - - SE 1014,8 10 0 0,0
16.10.2017 08:00:00 16,3 15,3 13 7 - - ESE 1015,2 10 0 0,0
16.10.2017 07:00:00 15,0 14,3 4 2 - - - 1015,8 10 0 0,0
16.10.2017 06:00:00 14,7 14,5 5 3 - - ENE 1015,8 10 0 0,0
16.10.2017 05:00:00 13,6 13,6 4 2 - - ENE 1016,2 4,2 0 0,0
16.10.2017 04:00:00 12,2 11,7 4 2 - - - 1016,3 3,1 0 0,0
16.10.2017 03:00:00 12,4 12,2 2 1 - - ENE 1016,5 2,8 0 0,0
16.10.2017 02:00:00 12,9 12,5 2 1 - - N 1016,7 4,5 0 0,0
16.10.2017 01:00:00 13,2 13,1 4 2 - - E 1016,8 5 - 0,0
16.10.2017 00:00:00 13,1 12,9 2 1 - - ESE 1017,0 5 0 0,0
15.10.2017 23:00:00 13,3 12,1 4 2 - - E 1017,2 5 0 0,0
15.10.2017 22:00:00 14,1 12,5 4 2 - - - 1017,3 5 0 0,0
15.10.2017 21:00:00 15,0 13,3 9 5 - - S 1017,3 5 0 0,0
15.10.2017 20:00:00 15,3 13,1 13 7 - - S 1017,4 8 0 0,0
15.10.2017 19:00:00 15,9 12,9 15 8 - - S 1017,3 10 0 0,0
15.10.2017 18:00:00 16,9 13,0 21 11 - - S 1017,0 10 6 0,0
15.10.2017 17:00:00 18,6 13,2 18 10 - - SSW 1016,9 10 54 0,0
15.10.2017 16:00:00 19,3 13,1 16 9 - - SSW 1017,0 10 54 0,0
15.10.2017 15:00:00 19,1 12,8 24 13 - - SW 1017,4 10 36 0,0
15.10.2017 14:00:00 19,9 13,5 21 11 - - SSW 1017,4 10 54 0,0
15.10.2017 13:00:00 18,7 13,6 18 10 - - SW 1017,6 10 6 0,0
15.10.2017 12:00:00 17,7 14,2 16 9 - - SW 1018,1 10 0 0,0
15.10.2017 11:00:00 16,8 14,9 16 9 - - SW 1018,3 8 0 0,0
15.10.2017 10:00:00 15,6 14,4 16 9 - - SSW 1018,4 8 0 0,0
15.10.2017 09:00:00 14,9 13,7 13 7 - - S 1018,3 9 0 0,0
15.10.2017 08:00:00 13,9 12,9 9 5 - - S 1018,1 6 0 0,0
15.10.2017 07:00:00 13,3 12,8 13 7 - - SSE 1018,0 6 0 0,0
15.10.2017 06:00:00 11,7 11,7 9 5 - - SSE 1018,6 8 0 0,0
15.10.2017 05:00:00 10,9 10,8 5 3 - - SE 1019,3 4,5 0 0,0
15.10.2017 04:00:00 11,4 11,3 4 2 - - SSE 1019,8 5 0 0,0
15.10.2017 03:00:00 11,5 11,4 5 3 - - SE 1020,5 3,3 0 0,0
15.10.2017 02:00:00 12,0 11,9 5 3 - - - 1021,1 2,0 0 0,0
15.10.2017 01:00:00 11,2 10,5 5 3 - - SSE 1021,8 7 - 0,0
15.10.2017 00:00:00 13,2 12,6 9 5 - - SSE 1022,2 5 0 0,0
14.10.2017 23:00:00 13,5 13,0 8 4 - - SSE 1022,5 5 0 0,0
14.10.2017 22:00:00 14,4 13,8 9 5 - - SSE 1022,7 6 0 0,0

tt = temperature
td = dewpoint
ff = wind speed
fx = gusts
dd = wind direction
ppp = reduced air pressure
vv = visibility
sd = sunshine duration
rr = precipitation

Next stations